Location: Cabrera Baja
(40.4089°N, 4.3354°W)
Time: 03:13:59
(UTC+00:00)

Cosmos 1153 Rocket - Pass Details

Date: 14 July 2020
Orbit: 953 x 1007 km, 82.9° (Epoch: 03 August)

Event Time Altitude Azimuth Distance (km) Brightness Sun altitude
Exits shadow 01:17:13 69° 200° (SSW) 1,028 4.3 -26.7°
Maximum altitude 01:18:02 85° 277° (W) 974 4.4 -26.7°
Drops below altitude 10° 01:24:13 10° 6° (N) 2,697 7.8 -26.4°
Sets 01:26:43 0° 7° (N) 3,643 8.8 -26.2°
